Location: Casa Rossa
(45.2389°N, 12.2056°E)
Time: 03:52:21
(UTC+00:00)

SeaSat 1 - Pass Details

Date: 14 July 2020
Orbit: 744 x 748 km, 108.0° (Epoch: 11 August)

Event Time Altitude Azimuth Distance (km) Brightness Sun altitude
Rises 02:13:53 0° 20° (NNE) 3,201 7.1 -12.0°
Reaches altitude 10° 02:16:20 10° 11° (N) 2,274 5.9 -11.7°
Maximum altitude 02:20:43 33° 309° (NW) 1,254 3.6 -11.2°
Enters shadow 02:24:46 12° 248° (WSW) 2,160 4.3 -10.7°
